Weather reports worldwide

Advertisment
Javea, Spain (8370): temperature & dewpoint: 06.12.2019 17:00:00 - 12.12.2019 17:00:00 (CET)Javea, Spain (8370): wind speed & gusts: 06.12.2019 17:00:00 - 12.12.2019 17:00:00 (CET)Javea, Spain (8370): wind direction: 06.12.2019 17:00:00 - 12.12.2019 17:00:00 (CET)Javea, Spain (8370): reduced air pressure: 06.12.2019 17:00:00 - 12.12.2019 17:00:00 (CET)Javea, Spain (8370): visibility: 06.12.2019 17:00:00 - 12.12.2019 17:00:00 (CET)Javea, Spain (8370): sunshine duration: 06.12.2019 17:00:00 - 12.12.2019 17:00:00 (CET)Javea, Spain (8370): precipitation: 06.12.2019 17:00:00 - 12.12.2019 17:00:00 (CET)
Date & Time tt [°C] td [°C] ff [km/h] ff [kn] fx [km/h] fx [kn] dd ppp [hPa] vv [km] sd [min] rr [mm]
12.12.2019 17:00:00 - - - - - - - - - - -
12.12.2019 16:00:00 15,7 -1,0 16 9 36 19 WNW 1015,2 20 0 0,0
12.12.2019 15:00:00 16,0 -0,3 17 9 41 22 W 1015,6 20 0 0,0
12.12.2019 14:00:00 15,9 0,0 19 11 36 20 W 1017,2 20 0 0,0
12.12.2019 13:00:00 16,8 -0,5 21 11 40 22 WNW 1018,8 20 45 -
12.12.2019 12:00:00 16,7 -0,5 21 11 41 22 W 1019,6 20 60 0,0
12.12.2019 11:00:00 14,8 -0,3 21 11 44 24 WNW 1020,2 20 59 0,0
12.12.2019 10:00:00 13,7 0,6 11 6 37 20 W 1020,5 20 11 0,0
12.12.2019 09:00:00 12,9 0,0 19 10 39 21 W 1020,2 20 0 0,0
12.12.2019 08:00:00 12,9 -0,7 16 9 37 20 W 1020,1 20 0 0,0
12.12.2019 07:00:00 13,0 -2,2 11 6 38 21 W 1020,5 20 0 -
12.12.2019 06:00:00 13,3 -2,2 15 8 27 15 W 1020,9 20 0 0,0
12.12.2019 05:00:00 12,6 -1,7 12 7 26 14 W 1020,9 20 0 0,0
12.12.2019 04:00:00 12,0 -1,4 9 5 32 17 WSW 1021,5 20 0 0,0
12.12.2019 03:00:00 12,4 -1,4 14 8 36 19 W 1022,1 20 0 0,0
12.12.2019 02:00:00 12,3 -1,0 10 5 35 19 W 1022,0 20 0 0,0
12.12.2019 01:00:00 13,3 -1,4 17 9 48 26 WNW 1021,9 20 0 -
12.12.2019 00:00:00 13,2 -1,4 22 12 50 27 WNW 1022,4 20 0 0,0
11.12.2019 23:00:00 13,5 -0,5 26 14 44 24 WNW 1022,4 20 0 0,0
11.12.2019 22:00:00 13,6 0,6 18 10 40 21 WNW 1022,2 20 0 0,0
11.12.2019 21:00:00 14,2 2,7 21 11 43 23 WNW 1021,4 20 0 0,0
11.12.2019 20:00:00 15,1 3,2 23 12 47 26 NW 1020,3 20 0 0,0
11.12.2019 19:00:00 16,3 3,0 26 14 48 26 WNW 1019,1 20 0 -
11.12.2019 18:00:00 17,6 2,3 19 11 53 29 WNW 1017,7 20 0 0,0
11.12.2019 17:00:00 18,0 1,1 22 12 47 25 W 1017,2 20 0 0,0
11.12.2019 16:00:00 18,7 1,7 22 12 54 29 WNW 1016,7 20 19 0,0
11.12.2019 15:00:00 22,5 1,5 14 7 28 15 WNW 1017,1 20 45 0,0
11.12.2019 14:00:00 21,4 3,0 5 3 14 8 E 1017,2 20 60 0,0
11.12.2019 13:00:00 18,0 4,1 2 1 10 5 SE 1018,2 17 36 -
11.12.2019 12:00:00 15,6 5,8 1 1 10 5 S 1019,6 20 59 0,0
11.12.2019 11:00:00 11,3 4,5 7 4 14 8 WSW 1020,0 20 58 0,0
11.12.2019 10:00:00 8,4 2,3 9 5 19 11 W 1020,4 20 24 0,0
11.12.2019 09:00:00 6,5 1,1 13 7 16 9 WSW 1020,4 8 0 0,0
11.12.2019 08:00:00 4,8 1,3 11 6 15 8 WSW 1020,5 20 0 0,0
11.12.2019 07:00:00 4,6 2,5 10 5 14 7 W 1020,9 20 0 -
11.12.2019 06:00:00 4,9 2,1 7 4 15 8 WSW 1021,2 20 0 0,0
11.12.2019 05:00:00 5,4 3,0 9 5 13 7 W 1021,7 20 0 0,0
11.12.2019 04:00:00 7,3 4,8 9 5 15 8 WSW 1022,3 20 0 0,0
11.12.2019 03:00:00 5,9 4,5 7 4 11 6 WSW 1022,6 20 0 0,0
11.12.2019 02:00:00 5,4 3,9 4 2 10 5 WNW 1022,7 20 0 0,0
11.12.2019 01:00:00 6,0 4,1 3 1 9 5 W 1023,3 19 0 -
11.12.2019 00:00:00 7,1 4,8 6 3 11 6 W 1023,6 18 0 0,0
10.12.2019 23:00:00 7,1 5,0 3 2 10 5 W 1023,5 17 0 0,0
10.12.2019 22:00:00 8,4 5,0 5 3 11 6 WSW 1023,6 20 0 0,0
10.12.2019 21:00:00 9,4 5,9 1 1 9 5 N 1023,8 20 0 0,0
10.12.2019 20:00:00 10,7 6,4 2 1 10 6 NNW 1024,0 20 0 0,0
10.12.2019 19:00:00 11,8 6,7 4 2 17 9 NNW 1023,8 20 0 -
10.12.2019 18:00:00 13,9 6,7 10 5 20 11 SW 1023,5 20 36 0,0
10.12.2019 17:00:00 18,2 6,4 8 4 17 9 SW 1023,6 20 60 0,0
10.12.2019 16:00:00 17,9 5,1 6 4 16 9 ENE 1024,2 20 60 0,0
10.12.2019 15:00:00 19,0 3,6 5 3 18 10 ESE 1024,7 20 60 0,0
10.12.2019 14:00:00 18,6 2,5 13 7 26 14 NNE 1025,3 20 60 0,0
10.12.2019 13:00:00 18,2 1,7 15 8 31 17 N 1026,1 20 60 -
10.12.2019 12:00:00 18,8 -2,2 17 9 42 23 WNW 1026,0 20 60 0,0
10.12.2019 11:00:00 16,7 -2,0 14 8 27 15 WNW 1026,4 20 60 0,0
10.12.2019 10:00:00 13,1 -0,5 4 2 19 10 NNE 1026,3 20 25 0,0
10.12.2019 09:00:00 6,3 0,0 6 4 15 8 WSW 1025,6 20 0 0,0
10.12.2019 08:00:00 6,0 0,2 4 2 17 9 SW 1025,9 20 0 0,0
10.12.2019 07:00:00 5,6 0,6 10 5 16 9 SW 1025,1 20 0 -
10.12.2019 06:00:00 6,2 0,6 3 2 14 8 SSW 1025,4 20 0 0,0
10.12.2019 05:00:00 7,9 1,1 11 6 17 9 WSW 1025,5 20 0 0,0
10.12.2019 04:00:00 8,7 1,1 3 1 13 7 NW 1026,2 20 0 0,0
10.12.2019 03:00:00 10,0 1,3 4 2 15 8 SE 1026,2 20 0 0,0
10.12.2019 02:00:00 12,1 0,9 9 5 29 16 W 1026,3 20 0 0,0
10.12.2019 01:00:00 11,5 1,9 6 3 19 11 W 1026,7 20 0 -
10.12.2019 00:00:00 15,2 -0,3 9 5 29 16 W 1026,8 20 0 0,0
09.12.2019 23:00:00 14,2 1,1 14 8 23 13 WNW 1026,6 20 0 0,0
09.12.2019 22:00:00 14,6 2,1 8 4 25 13 WNW 1026,9 20 0 0,0
09.12.2019 21:00:00 15,1 1,7 16 9 26 14 WNW 1026,2 20 0 0,0
09.12.2019 20:00:00 15,4 1,9 8 5 27 15 NW 1026,0 20 0 0,0
09.12.2019 19:00:00 16,1 1,7 9 5 18 10 NW 1025,3 20 0 -
09.12.2019 18:00:00 16,8 3,0 9 5 24 13 NNW 1024,5 20 11 0,0
09.12.2019 17:00:00 17,8 2,1 11 6 26 14 N 1024,1 20 35 0,0
09.12.2019 16:00:00 20,0 4,8 16 9 26 14 N 1023,8 20 60 0,0
09.12.2019 15:00:00 21,4 2,7 16 8 29 16 N 1023,5 20 60 0,0
09.12.2019 14:00:00 22,8 -1,4 15 8 23 13 WNW 1024,0 20 60 0,0
09.12.2019 13:00:00 22,6 -1,4 11 6 29 16 W 1024,2 20 60 -
09.12.2019 12:00:00 20,9 0,2 11 6 22 12 WSW 1025,2 20 60 0,0
09.12.2019 11:00:00 18,8 1,3 8 5 26 14 WSW 1025,2 20 60 0,0
09.12.2019 10:00:00 15,0 4,1 12 7 21 12 SW 1024,9 20 27 0,0
09.12.2019 09:00:00 14,7 3,4 11 6 28 15 W 1024,4 20 0 0,0
09.12.2019 08:00:00 13,7 4,5 9 5 36 19 W 1023,7 20 0 0,0
09.12.2019 07:00:00 16,2 3,2 17 9 37 20 NW 1022,7 20 0 -
09.12.2019 06:00:00 15,6 6,2 15 8 33 18 NW 1022,6 20 0 0,0
09.12.2019 05:00:00 15,4 7,7 12 7 25 13 NW 1022,7 20 0 0,0
09.12.2019 04:00:00 15,4 7,7 6 4 24 13 WSW 1022,0 20 0 0,0
09.12.2019 03:00:00 15,6 7,8 14 7 34 18 WSW 1021,9 20 0 0,0
09.12.2019 02:00:00 16,9 7,0 22 12 37 20 WNW 1022,2 20 0 0,0
09.12.2019 01:00:00 15,8 6,8 16 9 26 14 WNW 1022,1 20 0 -
09.12.2019 00:00:00 12,3 6,8 6 3 13 7 NW 1022,0 20 0 0,0
08.12.2019 23:00:00 10,0 6,7 3 2 14 7 W 1021,9 20 0 0,0
08.12.2019 22:00:00 9,7 7,7 5 3 11 6 WSW 1022,2 13 0 0,0
08.12.2019 21:00:00 10,7 8,3 4 2 12 7 W 1022,3 11 0 0,0
08.12.2019 20:00:00 11,5 8,7 7 4 11 6 W 1022,4 16 0 0,0
08.12.2019 19:00:00 12,8 9,7 6 4 11 6 WSW 1022,1 20 0 -
08.12.2019 18:00:00 14,7 8,4 2 1 9 5 SW 1021,8 20 35 0,0
08.12.2019 17:00:00 17,6 7,8 6 3 16 9 SSW 1021,9 20 60 0,0
08.12.2019 16:00:00 19,3 10,0 6 3 13 7 SSE 1022,0 20 60 0,0
08.12.2019 15:00:00 19,3 10,5 5 3 11 6 SE 1022,4 20 60 0,0
08.12.2019 14:00:00 17,7 10,8 5 3 15 8 ENE 1023,1 20 60 0,0
08.12.2019 13:00:00 17,3 10,4 5 3 9 5 ENE 1024,0 20 60 -
08.12.2019 12:00:00 17,1 9,0 3 2 7 4 ENE 1025,0 20 60 0,0
08.12.2019 11:00:00 14,3 9,6 3 1 8 4 W 1025,2 20 60 0,0
08.12.2019 10:00:00 9,9 8,5 6 3 14 8 SW 1024,9 20 29 0,0
08.12.2019 09:00:00 6,3 5,5 10 5 14 8 WSW 1024,5 20 0 0,0
08.12.2019 08:00:00 6,3 5,5 9 5 13 7 WSW 1024,1 20 0 0,0
08.12.2019 07:00:00 5,9 5,0 9 5 13 7 WSW 1023,9 20 0 -
08.12.2019 06:00:00 6,0 5,1 9 5 11 6 WSW 1023,8 20 0 0,0
08.12.2019 05:00:00 6,2 5,1 10 5 12 7 WSW 1024,0 20 0 0,0
08.12.2019 04:00:00 6,6 5,8 9 5 14 8 WSW 1024,2 20 0 0,0
08.12.2019 03:00:00 6,9 5,8 9 5 14 8 WSW 1024,4 20 0 0,2
08.12.2019 02:00:00 7,2 6,4 9 5 14 8 W 1024,7 20 0 0,0
08.12.2019 01:00:00 7,3 6,4 8 4 12 6 WSW 1025,2 11 0 -
08.12.2019 00:00:00 8,0 7,0 10 5 14 8 WSW 1025,4 11 0 0,0
07.12.2019 23:00:00 8,6 7,7 7 4 10 5 WSW 1025,0 10 0 0,0
07.12.2019 22:00:00 8,7 7,6 9 5 11 6 WSW 1024,5 12 0 0,0
07.12.2019 21:00:00 9,0 8,0 8 4 10 5 WSW 1024,4 10 0 0,0
07.12.2019 20:00:00 9,8 8,4 8 4 10 5 SW 1024,3 7 0 0,0
07.12.2019 19:00:00 11,3 8,7 4 2 6 4 SW 1023,8 5 0 -
07.12.2019 18:00:00 14,1 10,2 3 2 9 5 ENE 1023,6 18 34 0,0
07.12.2019 17:00:00 16,0 11,0 5 3 15 8 E 1023,4 20 60 0,0
07.12.2019 16:00:00 16,6 8,8 9 5 16 9 NE 1023,0 20 60 0,0
07.12.2019 15:00:00 16,6 8,3 9 5 17 9 NE 1023,0 20 60 0,0
07.12.2019 14:00:00 18,0 9,6 8 4 13 7 ENE 1023,5 20 60 0,0
07.12.2019 13:00:00 18,4 9,4 4 2 15 8 N 1024,0 20 60 -
07.12.2019 12:00:00 16,2 10,8 5 3 10 5 ENE 1024,5 20 60 0,0
07.12.2019 11:00:00 13,3 10,0 0 0 10 5 N 1024,8 20 52 0,0
07.12.2019 10:00:00 11,5 10,5 4 2 8 4 WSW 1024,2 20 31 0,0
07.12.2019 09:00:00 8,7 7,6 4 2 8 4 SW 1024,0 7 0 0,0
07.12.2019 08:00:00 10,1 8,7 5 3 12 6 WSW 1023,8 10 0 0,0
07.12.2019 07:00:00 10,9 9,4 5 3 22 12 SSW 1023,7 13 0 -
07.12.2019 06:00:00 12,4 11,0 7 4 23 12 W 1023,4 15 0 0,0
07.12.2019 05:00:00 12,5 11,4 9 5 21 11 NNW 1023,7 15 0 0,0
07.12.2019 04:00:00 12,1 11,3 12 6 22 12 NW 1024,2 15 0 0,0
07.12.2019 03:00:00 9,8 9,0 5 3 12 7 WSW 1024,1 11 0 0,0
07.12.2019 02:00:00 9,9 8,9 4 2 11 6 W 1023,7 10 0 0,0
07.12.2019 01:00:00 10,8 9,7 4 2 12 7 WNW 1024,0 6 0 -
07.12.2019 00:00:00 12,0 11,1 6 4 12 7 NW 1024,0 17 0 0,0
06.12.2019 23:00:00 11,6 10,3 6 3 8 4 WSW 1024,0 8 0 0,0
06.12.2019 22:00:00 12,7 10,6 3 2 13 7 NNW 1024,0 9 0 0,0
06.12.2019 21:00:00 14,2 12,1 10 5 19 10 N 1024,1 19 0 0,0
06.12.2019 20:00:00 14,0 11,7 7 4 17 9 NNW 1023,9 13 0 0,0
06.12.2019 19:00:00 14,2 11,6 8 5 18 10 NNW 1023,4 20 0 -
06.12.2019 18:00:00 14,4 11,3 10 5 19 11 N 1022,9 20 25 0,0
06.12.2019 17:00:00 16,1 11,7 9 5 24 13 NNW 1022,8 20 58 0,0

tt = temperature
td = dewpoint
ff = wind speed
fx = gusts
dd = wind direction
ppp = reduced air pressure
vv = visibility
sd = sunshine duration
rr = precipitation

Next stations